VE3KSR Weather Reports


Display with metric or nautical units.
time (UTC)temp
F
wind
direction
speed
MPH
gust
MPH
rain 1hr
in
rain 24hr
in
rain mn
in
humidity
%
barometer
mb
20170723222824 65 134 11.0 14.0 3.42 0.00 0.00 90 1007.4
20170723222324 65 121 13.0 15.0 3.42 0.00 0.00 90 1007.3
20170723221824 65 125 12.0 15.0 3.42 0.00 0.00 90 1007.4
20170723221324 65 122 11.0 15.0 3.42 0.00 0.00 91 1007.4
20170723220824 65 113 12.0 14.0 3.42 0.00 0.00 90 1007.3
20170723220324 65 136 13.0 17.0 3.42 0.00 0.00 90 1007.1
20170723215824 65 146 11.0 14.0 3.42 0.00 0.00 90 1007.1
20170723215326 65 118 12.0 15.0 3.42 0.00 0.00 89 1007.1
20170723214824 65 131 12.0 14.0 3.42 0.00 0.00 90 1007.2
20170723214706 65 146 10.0 13.0 3.42 0.00 0.00 89 1007.4
20170723214324 65 146 10.0 13.0 3.42 0.00 0.00 89 1007.4
20170723213824 65 163 11.0 13.0 3.42 0.00 0.00 90 1007.5
20170723213326 66 141 9.0 13.0 3.42 0.00 0.00 89 1007.5
20170723212824 66 139 9.0 12.0 3.42 0.00 0.00 89 1007.5
20170723212324 66 120 9.0 12.0 3.42 0.00 0.00 89 1007.7
20170723211824 66 153 9.0 13.0 3.42 0.00 0.00 86 1007.8
20170723211324 66 155 11.0 13.0 3.42 0.00 0.00 89 1007.8
20170723210824 66 165 10.0 11.0 3.42 0.00 0.00 88 1007.9
20170723210324 65 156 7.0 9.0 3.42 0.00 0.00 88 1007.8
20170723205824 65 173 8.0 10.0 3.42 0.00 0.00 87 1007.9
20170723205324 65 158 6.0 10.0 3.42 0.00 0.00 87 1008.0
20170723204824 66 135 8.0 11.0 3.42 0.00 0.00 87 1008.0
20170723204324 65 173 7.0 9.0 3.42 0.00 0.00 87 1008.0
20170723203824 66 122 10.0 13.0 3.42 0.00 0.00 87 1008.0
20170723203324 66 135 9.0 10.0 3.42 0.00 0.00 88 1008.1
20170723202825 66 117 9.0 11.0 3.42 0.00 0.00 87 1008.2
20170723202324 66 131 8.0 10.0 3.42 0.00 0.00 85 1008.2
20170723201824 66 166 4.0 6.0 3.42 0.00 0.00 83 1008.3
20170723201324 66 172 5.0 7.0 3.42 0.00 0.00 84 1008.4
20170723195824 65 210 5.0 8.0 3.42 0.00 0.00 83 1008.5
20170723195324 64 207 3.0 6.0 3.42 0.00 0.00 83 1008.7
20170723194824 65 172 7.0 10.0 3.42 0.00 0.00 82 1008.7
20170723194324 64 177 7.0 10.0 3.42 0.00 0.00 82 1008.7
20170723193824 65 179 7.0 11.0 3.42 0.00 0.00 82 1008.6
20170723193326 66 169 7.0 9.0 3.42 0.00 0.00 82 1008.7
20170723192824 66 183 6.0 10.0 3.42 0.00 0.00 82 1008.7
20170723192324 66 166 8.0 10.0 3.42 0.00 0.00 81 1008.7
20170723191824 65 158 8.0 11.0 3.42 0.00 0.00 82 1008.8
20170723191454 66 162 8.0 10.0 3.42 0.00 0.00 79 1009.0
20170723191324 66 162 8.0 10.0 3.42 0.00 0.00 79 1009.0
20170723191046 66 179 9.0 12.0 3.42 0.00 0.00 79 1009.0
20170723190824 66 179 9.0 12.0 3.42 0.00 0.00 79 1009.0
20170723190324 66 156 6.0 10.0 3.42 0.00 0.00 80 1008.8
20170723185922 65 162 8.0 10.0 3.42 0.00 0.00 80 1009.0
20170723185824 65 162 8.0 10.0 3.42 0.00 0.00 80 1009.0
20170723185427 66 145 8.0 11.0 3.42 0.00 0.00 82 1009.0
20170723185324 66 145 8.0 11.0 3.42 0.00 0.00 82 1009.0
20170723185008 66 160 8.0 11.0 3.42 0.00 0.00 80 1009.2
20170723184824 66 160 8.0 11.0 3.42 0.00 0.00 80 1009.2
20170723184413 65 121 8.0 10.0 3.42 0.00 0.00 81 1009.2
20170723184324 65 121 8.0 10.0 3.42 0.00 0.00 81 1009.2
20170723183824 65 163 6.0 9.0 3.42 0.00 0.00 82 1009.2
20170723183429 65 105 8.0 10.0 3.42 0.00 0.00 82 1009.4
20170723183324 65 105 8.0 10.0 3.42 0.00 0.00 82 1009.4
20170723182941 65 153 8.0 11.0 3.42 0.00 0.00 82 1009.4
20170723182825 65 153 8.0 11.0 3.42 0.00 0.00 82 1009.4
20170723182424 65 148 8.0 10.0 3.42 0.00 0.00 82 1009.5
20170723182324 65 148 8.0 10.0 3.42 0.00 0.00 82 1009.5
20170723181824 65 145 9.0 11.0 3.42 0.00 0.00 83 1009.5
20170723181324 65 129 7.0 10.0 3.42 0.00 0.00 82 1009.5
20170723180824 64 120 9.0 11.0 3.42 0.00 0.00 82 1009.7
20170723180324 63 129 8.0 11.0 3.42 0.00 0.00 82 1009.7
20170723175825 64 138 7.0 9.0 3.42 0.00 0.00 82 1009.8
20170723175324 64 149 8.0 11.0 3.42 0.00 0.00 83 1009.9
20170723174824 63 149 8.0 11.0 3.42 0.00 0.00 82 1009.9
20170723174325 63 114 8.0 10.0 3.42 0.00 0.00 83 1009.8
20170723173824 63 138 8.0 11.0 3.42 0.00 0.00 83 1009.8
20170723173324 63 170 9.0 10.0 3.42 0.00 0.00 82 1009.9
20170723172826 63 129 8.0 11.0 3.42 0.00 0.00 82 1010.0
20170723172324 63 107 8.0 9.0 3.42 0.00 0.00 82 1010.0
20170723171824 63 139 8.0 10.0 3.42 0.00 0.00 82 1010.0
20170723171324 63 152 7.0 11.0 3.42 0.00 0.00 83 1010.1
20170723170825 63 150 9.0 12.0 3.42 0.00 0.00 84 1010.3
20170723170504 63 165 8.0 10.0 3.42 0.00 0.00 83 1010.5
20170723170325 63 165 8.0 10.0 3.42 0.00 0.00 83 1010.5
20170723165826 63 162 9.0 11.0 3.42 0.00 0.00 84 1010.5
20170723165325 63 143 9.0 11.0 3.42 0.00 0.00 83 1010.4
20170723164824 63 169 11.0 14.0 3.42 0.00 0.00 82 1010.4
20170723164325 63 131 11.0 16.0 3.42 0.00 0.00 82 1010.3
20170723163824 63 165 11.0 15.0 3.42 0.00 0.00 85 1010.3
20170723163327 63 148 13.0 15.0 3.42 0.00 0.00 82 1010.2
20170723162827 63 156 10.0 15.0 3.42 0.00 0.00 85 1010.2
20170723162325 63 155 11.0 13.0 3.42 0.00 0.00 81 1010.3
20170723162003 64 142 9.0 13.0 3.42 0.00 0.00 84 1010.4
20170723161824 64 142 9.0 13.0 3.42 0.00 0.00 84 1010.4
20170723161324 63 115 11.0 14.0 3.42 0.00 0.00 85 1010.3
20170723160825 63 135 10.0 13.0 3.42 0.00 0.00 85 1010.2
20170723160325 63 136 10.0 14.0 3.42 0.00 0.00 86 1010.3
20170723155827 63 127 9.0 12.0 3.42 0.00 0.00 87 1010.4
20170723155552 63 132 9.0 13.0 3.42 0.00 0.00 89 1010.5
20170723155324 63 132 9.0 13.0 3.42 0.00 0.00 89 1010.5
20170723154825 63 113 11.0 14.0 3.42 0.00 0.00 88 1010.4
20170723154324 62 129 11.0 15.0 3.42 0.00 0.00 89 1010.5
20170723153824 62 146 11.0 14.0 3.42 0.00 0.00 88 1010.4
20170723153324 61 111 9.0 13.0 3.42 0.00 0.00 90 1010.5
20170723152824 61 141 10.0 12.0 3.42 0.00 0.00 90 1010.7
20170723152326 61 115 11.0 13.0 3.42 0.00 0.00 89 1011.0
20170723151825 61 143 11.0 13.0 3.42 0.00 0.00 89 1011.0
20170723151325 61 167 8.0 10.0 3.42 0.00 0.00 89 1011.0
20170723150825 61 139 10.0 13.0 3.42 0.00 0.00 89 1011.0
20170723150325 61 120 8.0 12.0 3.42 0.00 0.00 90 1010.8
20170723145825 61 114 9.0 11.0 3.42 0.00 0.00 90 1010.9
20170723145325 61 134 11.0 14.0 3.42 0.00 0.00 90 1010.8
20170723144826 61 103 10.0 14.0 3.42 0.00 0.00 91 1010.9
20170723144325 61 121 11.0 13.0 3.42 0.00 0.00 92 1010.7
20170723143825 61 135 9.0 12.0 3.42 0.00 0.00 92 1010.8
20170723143325 61 138 11.0 12.0 3.42 0.00 0.00 92 1010.8
20170723142826 61 173 9.0 11.0 3.42 0.00 0.00 92 1011.0
20170723142325 60 122 9.0 12.0 3.42 0.00 0.00 93 1011.0
20170723141825 61 125 10.0 12.0 3.42 0.00 0.00 92 1011.0
20170723141325 60 125 10.0 13.0 3.42 0.00 0.00 92 1010.8
20170723140827 60 135 9.0 12.0 3.42 0.00 0.00 93 1010.8
20170723140326 60 120 10.0 12.0 3.42 0.00 0.00 93 1010.8
20170723135825 59 98 9.0 10.0 3.42 0.00 0.00 93 1010.9
20170723135325 59 125 10.0 13.0 3.42 0.00 0.00 93 1010.8
20170723134825 58 127 11.0 12.0 3.42 0.00 0.00 92 1010.8
20170723134326 58 124 10.0 12.0 3.42 0.00 0.00 93 1010.9
20170723133827 59 124 9.0 12.0 3.42 0.00 0.00 92 1010.9
20170723133325 59 113 11.0 15.0 3.42 0.00 0.00 92 1010.9
20170723132827 59 120 11.0 12.0 3.42 0.00 0.00 93 1010.8
20170723132325 59 118 10.0 13.0 3.42 0.00 0.00 93 1010.9
20170723131825 58 118 11.0 14.0 3.42 0.00 0.00 92 1010.9
20170723131326 58 146 10.0 14.0 3.42 0.00 0.00 93 1010.9
20170723130825 59 132 11.0 13.0 3.42 0.00 0.00 93 1010.9
20170723130327 59 110 10.0 13.0 3.42 0.00 0.00 93 1010.8
20170723125828 58 125 9.0 13.0 3.42 0.00 0.00 93 1010.9
20170723125326 58 128 11.0 13.0 3.42 0.00 0.00 93 1010.9
20170723125004 58 124 9.0 11.0 3.42 0.00 0.00 93 1011.0
20170723124825 58 124 9.0 11.0 3.42 0.00 0.00 93 1011.0
20170723124325 58 129 9.0 10.0 3.42 0.00 0.00 93 1011.1
20170723123825 58 143 9.0 11.0 3.42 0.00 0.00 93 1011.0
20170723123325 58 136 8.0 11.0 3.42 0.00 0.00 93 1011.0
20170723122825 58 120 8.0 11.0 3.42 0.00 0.00 93 1011.1
20170723122328 58 135 8.0 10.0 3.42 0.00 0.00 92 1010.9
20170723121825 58 122 9.0 11.0 3.42 0.00 0.00 92 1011.1
20170723121325 56 122 9.0 10.0 3.42 0.00 0.00 92 1011.0
20170723120825 56 124 10.0 12.0 3.42 0.00 0.00 92 1010.8
20170723120325 55 110 9.0 12.0 3.42 0.00 0.00 92 1010.7
20170723115826 55 125 10.0 12.0 3.42 0.00 0.00 92 1010.7
20170723115436 55 125 10.0 12.0 3.42 0.00 0.00 92 1010.5
20170723115326 55 125 10.0 12.0 3.42 0.00 0.00 92 1010.5
20170723114827 55 117 9.0 12.0 3.42 0.00 0.00 92 1010.5
20170723114326 55 132 10.0 13.0 3.42 0.00 0.00 92 1010.5
20170723113826 55 124 11.0 13.0 3.42 0.00 0.00 93 1010.4
20170723113326 55 122 10.0 12.0 3.42 0.00 0.00 93 1010.3
20170723112826 55 108 10.0 12.0 3.42 0.00 0.00 94 1010.4
20170723112521 55 98 10.0 13.0 3.42 0.00 0.00 94 1010.6
20170723112327 55 98 10.0 13.0 3.42 0.00 0.00 94 1010.6
20170723111937 55 122 11.0 13.0 3.42 0.00 0.00 94 1010.5
20170723111826 55 122 11.0 13.0 3.42 0.00 0.00 94 1010.5
20170723111325 55 122 10.0 12.0 3.42 0.00 0.00 94 1010.4
20170723110930 55 129 9.0 11.0 3.42 0.00 0.00 94 1010.5
20170723110825 55 129 9.0 11.0 3.42 0.00 0.00 94 1010.5
20170723110325 55 127 9.0 10.0 3.42 0.00 0.00 95 1010.6
20170723105825 55 122 9.0 11.0 3.42 0.00 0.00 95 1010.4
20170723105329 55 121 10.0 12.0 3.42 0.00 0.00 95 1010.5
20170723104943 55 115 10.0 11.0 3.42 0.00 0.00 95 1010.2
20170723104825 55 115 10.0 11.0 3.42 0.00 0.00 95 1010.2
20170723104326 54 124 9.0 11.0 3.42 0.00 0.00 95 1010.5
20170723103825 55 118 9.0 10.0 3.42 0.00 0.00 95 1010.5
20170723103411 55 129 9.0 10.0 3.42 0.00 0.00 95 1010.6
20170723103326 55 129 9.0 10.0 3.42 0.00 0.00 95 1010.6
20170723102825 55 131 8.0 10.0 3.42 0.00 0.00 95 1010.4
20170723102325 53 124 8.0 10.0 3.42 0.00 0.00 95 1010.5
20170723101830 57 125 8.0 10.0 3.42 0.00 0.00 95 1010.4
20170723101332 57 114 8.0 10.0 3.42 0.00 0.00 95 1010.5
20170723100825 58 111 9.0 11.0 3.42 0.00 0.00 95 1010.4
20170723100325 58 108 9.0 11.0 3.42 0.00 0.00 95 1010.3
20170723095826 58 118 9.0 11.0 3.42 0.00 0.00 95 1010.2
20170723095327 58 113 9.0 11.0 3.42 0.00 0.00 95 1010.1
20170723094827 59 108 9.0 11.0 3.42 0.00 0.00 95 1010.0
20170723094325 59 115 9.0 10.0 3.42 0.00 0.00 94 1010.0
20170723093829 59 117 8.0 10.0 3.42 0.00 0.00 94 1010.2
20170723093326 59 118 8.0 10.0 3.42 0.00 0.00 94 1009.9
20170723092825 59 128 8.0 10.0 3.42 0.00 0.00 94 1009.9
20170723092326 59 115 8.0 9.0 3.42 0.00 0.00 94 1009.9
20170723091826 59 111 9.0 10.0 3.42 0.00 0.00 94 1009.9
20170723091328 59 113 9.0 11.0 3.42 0.00 0.00 94 1009.8
20170723090825 59 108 11.0 13.0 3.42 0.00 0.00 94 1009.9
20170723090325 59 124 11.0 13.0 3.42 0.00 0.00 94 1009.8
20170723085828 59 107 9.0 11.0 3.42 0.00 0.00 93 1009.9
20170723085325 59 118 10.0 12.0 3.42 0.00 0.00 91 1009.7
20170723084825 59 117 11.0 12.0 3.42 0.00 0.00 91 1009.6
20170723084325 59 113 10.0 11.0 3.42 0.00 0.00 90 1009.6
20170723083827 59 125 11.0 14.0 3.42 0.00 0.00 90 1009.7
20170723083327 59 136 11.0 13.0 3.42 0.00 0.00 90 1009.6
20170723082827 59 136 12.0 14.0 3.42 0.00 0.00 89 1009.7
20170723082325 59 128 12.0 14.0 3.42 0.00 0.00 88 1009.7
20170723081827 59 134 12.0 13.0 3.42 0.00 0.00 87 1009.8
20170723081325 59 127 11.0 13.0 3.42 0.00 0.00 88 1009.9
20170723080825 59 135 11.0 13.0 3.42 0.00 0.00 89 1009.9
20170723080421 59 143 11.0 14.0 3.42 0.00 0.00 88 1009.7
20170723080325 59 143 11.0 14.0 3.42 0.00 0.00 88 1009.7
20170723075921 59 134 11.0 14.0 3.42 0.00 0.00 89 1009.9
20170723075826 59 134 11.0 14.0 3.42 0.00 0.00 89 1009.9
20170723075325 59 142 12.0 14.0 3.42 0.00 0.00 90 1009.9
20170723074825 59 124 11.0 13.0 3.42 0.00 0.00 92 1009.9
20170723074439 59 131 9.0 10.0 3.42 0.00 0.00 93 1010.2
20170723074325 59 131 9.0 10.0 3.42 0.00 0.00 93 1010.2
20170723073903 59 138 8.0 9.0 3.42 0.00 0.00 93 1010.1
20170723073826 59 138 8.0 9.0 3.42 0.00 0.00 93 1010.1
20170723073326 59 131 8.0 9.0 3.42 0.00 0.00 93 1010.2
20170723072826 59 141 9.0 11.0 3.42 0.00 0.00 93 1010.1
20170723072414 59 125 11.0 12.0 3.42 0.00 0.00 93 1010.1
20170723072326 59 125 11.0 12.0 3.42 0.00 0.00 93 1010.1
20170723071918 59 127 9.0 11.0 3.42 0.00 0.00 93 1010.2
20170723071826 59 127 9.0 11.0 3.42 0.00 0.00 93 1010.2
20170723071327 59 131 9.0 10.0 3.42 0.00 0.00 93 1010.3
20170723070825 59 121 9.0 11.0 3.42 0.00 0.00 93 1010.2
20170723070326 59 105 10.0 14.0 3.42 0.00 0.00 92 1010.1
20170723065929 59 114 11.0 13.0 3.42 0.00 0.00 92 1010.0
20170723065826 59 114 11.0 13.0 3.42 0.00 0.00 92 1010.0
20170723065326 59 120 10.0 12.0 3.42 0.00 0.00 91 1009.9
20170723064826 59 113 9.0 10.0 3.42 0.00 0.00 89 1010.1
20170723064417 58 110 8.0 9.0 3.42 0.00 0.00 86 1010.3
20170723064326 58 110 8.0 9.0 3.42 0.00 0.00 86 1010.3
20170723063826 58 113 7.0 8.0 3.42 0.00 0.00 85 1010.5
20170723063326 58 125 7.0 8.0 3.42 0.00 0.00 86 1010.4
20170723062826 56 0 0.0 0.0 3.42 0.00 0.00 86 1010.6
20170723062448 57 0 0.0 0.0 3.42 0.00 0.00 89 1010.6
20170723062326 57 0 0.0 0.0 3.42 0.00 0.00 89 1010.6
20170723061827 56 0 0.0 0.0 3.42 0.00 0.00 90 1010.5
20170723061326 55 80 2.0 5.0 3.42 0.00 0.00 92 1010.5
20170723060827 55 100 6.0 6.0 3.42 0.00 0.00 93 1010.4
20170723060327 56 120 6.0 7.0 3.42 0.00 0.00 93 1010.3
20170723055828 56 118 7.0 8.0 3.42 0.00 0.00 94 1010.4
20170723055416 53 118 7.0 9.0 3.42 0.00 0.00 94 1010.5
20170723055326 53 118 7.0 9.0 3.42 0.00 0.00 94 1010.5
20170723054826 54 114 7.0 9.0 3.42 0.00 0.00 94 1010.6
20170723054419 55 122 8.0 9.0 3.42 0.00 0.00 94 1010.7
20170723054326 55 122 8.0 9.0 3.42 0.00 0.00 94 1010.7
20170723053826 55 135 9.0 10.0 3.42 0.00 0.00 93 1010.6
20170723053433 55 138 9.0 10.0 3.42 0.00 0.00 93 1010.5
20170723053327 55 138 9.0 10.0 3.42 0.00 0.00 93 1010.5
20170723052825 55 136 9.0 10.0 3.42 0.00 0.00 94 1010.7
20170723052417 56 141 8.0 9.0 3.42 0.00 0.00 94 1010.8
20170723052331 56 141 8.0 9.0 3.42 0.00 0.00 94 1010.8
20170723051827 55 150 8.0 10.0 3.42 0.00 0.00 93 1010.8
20170723051326 56 138 9.0 10.0 3.42 0.00 0.00 93 1010.7
20170723050826 56 135 9.0 10.0 3.42 0.00 0.00 92 1010.8
20170723050326 56 153 10.0 12.0 3.42 0.00 0.00 90 1010.7
20170723045922 55 145 10.0 11.0 3.42 0.00 0.00 91 1010.7
20170723045826 55 145 10.0 11.0 3.42 0.00 0.00 91 1010.7
20170723045326 56 139 8.0 9.0 3.42 0.00 0.00 92 1010.7
20170723044826 56 120 6.0 8.0 3.42 0.00 0.00 93 1010.8
20170723044326 56 148 8.0 10.0 3.42 0.00 0.00 93 1010.7
20170723043909 56 142 9.0 11.0 3.42 0.00 0.00 93 1010.6
20170723043826 56 142 9.0 11.0 3.42 0.00 0.00 93 1010.6
20170723043445 52 143 9.0 12.0 3.42 0.00 0.00 93 1010.6
20170723043326 52 143 9.0 12.0 3.42 0.00 0.00 93 1010.6
20170723042826 57 141 10.0 13.0 3.42 0.00 0.01 93 1010.6
20170723042327 57 156 10.0 12.0 3.42 0.00 0.01 93 1010.5
20170723041827 57 148 11.0 14.0 3.42 0.00 0.01 93 1010.7
20170723041327 57 131 12.0 14.0 3.42 0.00 0.01 93 1010.4
20170723040830 58 129 9.0 11.0 3.42 0.00 0.01 94 1010.7
20170723040327 58 131 9.0 11.0 3.42 0.00 0.01 94 1010.7
20170723035911 58 138 8.0 10.0 3.42 0.00 0.01 94 1010.8
20170723035829 58 138 8.0 10.0 3.42 0.00 0.01 94 1010.8
20170723035326 58 150 7.0 9.0 3.42 0.00 0.01 94 1010.9
20170723034826 58 148 8.0 10.0 3.42 0.00 0.01 94 1010.9
20170723034328 58 172 8.0 10.0 3.42 0.00 0.01 94 1010.9
20170723033826 58 158 9.0 11.0 3.42 0.00 0.01 94 1010.7
20170723033423 58 152 10.0 12.0 3.42 0.00 0.01 94 1010.6
20170723033326 58 152 10.0 12.0 3.42 0.00 0.01 94 1010.6
20170723032917 59 141 9.0 11.0 3.42 0.00 0.01 94 1010.7
20170723032827 59 141 9.0 11.0 3.42 0.00 0.01 94 1010.7
20170723032730 59 128 9.0 10.0 3.42 0.00 0.01 94 1010.8
20170723032328 59 128 9.0 10.0 3.42 0.00 0.01 94 1010.8
20170723031826 59 132 9.0 11.0 3.42 0.00 0.01 94 1010.9
20170723031326 59 142 9.0 11.0 3.42 0.00 0.01 93 1010.8
20170723030827 59 142 9.0 12.0 3.42 0.00 0.01 93 1010.9
20170723030328 59 167 10.0 12.0 3.42 0.00 0.01 94 1010.9
20170723025828 59 167 9.0 12.0 3.42 0.00 0.01 93 1011.0
20170723025326 59 166 9.0 11.0 3.42 0.00 0.01 93 1011.0
20170723024826 59 165 9.0 11.0 3.42 0.00 0.01 93 1011.1
20170723024326 59 173 8.0 10.0 3.42 0.00 0.01 92 1011.3
20170723023826 59 200 7.0 9.0 3.42 0.00 0.01 92 1011.4
20170723023326 59 204 9.0 10.0 3.42 0.00 0.01 92 1011.4
20170723022826 60 187 9.0 10.0 3.42 0.00 0.01 93 1011.2
20170723022329 60 200 8.0 9.0 3.42 0.00 0.01 92 1011.2
20170723021826 60 181 7.0 8.0 3.42 0.00 0.01 92 1011.1
20170723021328 60 120 9.0 13.0 3.42 0.00 0.01 91 1011.2
20170723020827 60 111 12.0 13.0 3.42 0.00 0.01 91 1011.0
20170723020438 60 127 11.0 13.0 3.42 0.00 0.01 91 1010.9
20170723020329 60 127 11.0 13.0 3.42 0.00 0.01 91 1010.9
20170723015827 61 118 11.0 13.0 3.42 0.00 0.01 91 1010.9
20170723015326 61 113 10.0 12.0 3.42 0.00 0.01 91 1011.1
20170723014826 60 124 9.0 10.0 3.42 0.00 0.01 91 1011.0
20170723014326 61 103 9.0 11.0 3.42 0.00 0.01 92 1011.0
20170723013828 61 111 9.0 12.0 3.42 0.00 0.01 91 1010.7
20170723013327 61 124 13.0 18.0 3.42 0.00 0.01 91 1010.5
20170723012913 60 113 12.0 15.0 3.42 0.00 0.01 92 1010.4
20170723012826 60 113 12.0 15.0 3.42 0.00 0.01 92 1010.4
20170723012327 60 114 13.0 15.0 3.42 0.00 0.01 92 1010.3
20170723011828 60 120 12.0 15.0 3.42 0.00 0.01 92 1010.3
20170723011422 60 128 12.0 14.0 3.42 0.00 0.01 92 1010.4
20170723011327 60 128 12.0 14.0 3.42 0.00 0.01 92 1010.4
20170723010907 60 107 12.0 15.0 3.42 0.00 0.01 93 1010.2
20170723010827 60 107 12.0 15.0 3.42 0.00 0.01 93 1010.2
20170723010444 60 110 12.0 15.0 3.42 0.00 0.01 92 1010.3
20170723010327 60 110 12.0 15.0 3.42 0.00 0.01 92 1010.3
20170723005923 60 108 12.0 16.0 3.42 0.00 0.01 93 1010.2
20170723005828 60 108 12.0 16.0 3.42 0.00 0.01 93 1010.2
20170723005329 60 110 13.0 16.0 3.42 0.00 0.01 92 1010.2
20170723004828 60 114 12.0 15.0 3.42 0.00 0.01 92 1010.3
20170723004327 60 122 12.0 14.0 3.42 0.00 0.01 93 1010.1
20170723003831 60 120 11.0 14.0 3.42 0.00 0.01 93 1010.2
20170723003327 60 127 12.0 14.0 3.42 0.00 0.01 93 1010.2
20170723002826 60 121 12.0 16.0 3.42 0.00 0.01 93 1010.2
20170723002326 61 128 12.0 15.0 3.42 0.00 0.01 93 1010.2
20170723001826 61 121 13.0 15.0 3.42 0.00 0.01 93 1010.1
20170723001326 61 129 13.0 16.0 3.42 0.00 0.01 92 1010.1
20170723000826 61 118 12.0 15.0 3.42 0.00 0.01 92 1010.3
20170723000326 61 131 11.0 14.0 3.42 0.00 0.01 93 1010.3
20170722235828 61 125 11.0 14.0 3.42 0.00 0.01 92 1010.2
20170722235328 61 125 10.0 12.0 3.42 0.00 0.01 92 1010.2
20170722234826 61 122 10.0 12.0 3.42 0.00 0.01 92 1010.2
20170722234327 61 100 11.0 13.0 3.42 0.00 0.01 92 1010.1
20170722233826 61 114 11.0 14.0 3.42 0.00 0.01 91 1010.0
20170722233327 61 110 12.0 14.0 3.42 0.00 0.01 90 1009.9
20170722232827 57 115 12.0 13.0 3.42 0.00 0.01 87 1010.0
20170722232326 59 122 11.0 13.0 3.42 0.00 0.01 83 1010.0
20170722231826 60 122 10.0 11.0 3.42 0.00 0.01 82 1010.1
20170722231443 59 114 10.0 11.0 3.42 0.00 0.01 79 1009.9
20170722231328 59 114 10.0 11.0 3.42 0.00 0.01 79 1009.9
20170722230826 59 117 8.0 9.0 3.42 0.00 0.01 79 1010.0
20170722230327 57 89 9.0 10.0 3.42 0.00 0.01 79 1010.0
20170722225827 56 122 9.0 10.0 3.42 0.00 0.01 82 1010.1
20170722225439 58 84 9.0 11.0 3.42 0.00 0.01 82 1010.1
20170722225327 58 84 9.0 11.0 3.42 0.00 0.01 82 1010.1
20170722224827 58 73 9.0 11.0 3.42 0.00 0.01 81 1010.1
20170722224327 59 80 9.0 11.0 3.42 0.00 0.01 80 1010.0
20170722223827 58 93 9.0 10.0 3.42 0.00 0.01 74 1009.9
20170722223327 59 94 8.0 9.0 3.42 0.00 0.01 75 1009.8